[[{"header":{"parameterUnit":"m.s-1","parameterCategory":1,"la1":30.2991,"la2":30.254,"lo1":-89.0895,"lo2":-89.0444,"dy":0.0017,"dx":0.0017,"nx":28,"ny":28,"refTime":"2025-12-28T03:00:00:Z","depth":0,"parameterNumber":2,"parameterNumberName":"U-component_of_WINDS"},"data":[0,0,0,0,0,0,0,0,0,0,0,0,0,0,0,0,0,0,0,0,0,0,0,0,0,0,0,0,0,0,0,0,0,0,0,0,0,0,0,0,0,0,0,0,0,0,0,0,0,0,0,0,0,0,0,0,0,0,-0.2125,-0.2124,0,-0.2064,-0.2063,-0.2062,-0.2038,-0.2038,-0.2038,-0.2038,-0.1974,-0.1972,-0.197,0,0,0,0,0,0,0,0,0,0,0,0,0,-0.222,-0.2219,-0.2125,-0.2124,-0.2124,-0.2064,-0.2063,-0.2062,-0.2038,-0.2038,-0.2038,-0.2038,-0.1974,-0.1972,-0.197,0,0,0,0,0,0,0,0,0,0,0,0,0,-0.2171,-0.2218,-0.2125,-0.2104,-0.2102,-0.2064,-0.2063,-0.2062,-0.2038,-0.2038,-0.2038,-0.2038,-0.1975,-0.1972,-0.197,-0.1948,0,0,-0.1961,-0.196,0,0,0,0,0,0,0,0,-0.2174,-0.2167,-0.2108,-0.2106,-0.2103,-0.2059,-0.2073,-0.2024,-0.2038,-0.2062,-0.2038,-0.2038,-0.2002,-0.1997,-0.1985,-0.1945,-0.1942,-0.1961,-0.1959,-0.1958,-0.1957,0,0,0,0,0,0,0,-0.2177,-0.217,-0.2101,-0.2107,-0.2104,-0.2098,-0.2091,-0.2063,-0.2031,-0.206,-0.2058,-0.2051,-0.2,-0.1987,-0.1983,-0.1941,-0.1961,-0.1959,-0.1957,-0.1956,-0.188,-0.188,0,0,0,0,0,0,-0.2184,-0.2173,-0.2103,-0.2099,-0.214,-0.2096,-0.2088,-0.2072,-0.2031,-0.2025,-0.2051,-0.205,-0.1992,-0.1986,-0.1981,-0.1952,-0.1958,-0.1955,-0.1954,-0.1881,-0.188,-0.188,0,0,0,0,0,0,-0.2186,-0.2178,-0.2105,-0.2135,-0.2126,-0.2094,-0.2076,-0.2071,-0.2058,-0.2025,-0.2019,-0.2044,-0.1992,-0.1985,-0.1956,-0.195,-0.1954,-0.1952,-0.1881,-0.1881,-0.188,-0.1896,0,0,0,0,0,0,-0.2189,-0.2179,-0.2171,-0.2135,-0.2124,-0.2082,-0.2076,-0.207,-0.2054,-0.2052,-0.2016,-0.2011,-0.1992,-0.1961,-0.1954,-0.1946,-0.1949,-0.1882,-0.1881,-0.188,-0.1896,-0.1896,-0.1896,0,0,0,0,0,-0.2193,-0.2177,-0.217,-0.2162,-0.2113,-0.2082,-0.2075,-0.2054,-0.2053,-0.2044,-0.2023,-0.2012,-0.1952,-0.1958,-0.195,-0.1941,-0.1882,-0.1881,-0.188,-0.1896,-0.1896,-0.1896,0,0,0,0,0,0,-0.2212,-0.2172,-0.2164,-0.2137,-0.2113,-0.2078,-0.2066,-0.2055,-0.2031,-0.203,-0.2004,-0.1996,-0.197,-0.1953,-0.1961,-0.1918,-0.1916,-0.1914,-0.193,-0.193,-0.1931,-0.1935,-0.1947,0,0,0,0,0,-0.2213,-0.2192,-0.2158,-0.2137,-0.2126,-0.2098,-0.2084,-0.2069,-0.2043,-0.2033,-0.2009,-0.1984,-0.196,-0.1944,-0.192,-0.1893,-0.1885,-0.1884,-0.1884,-0.1884,-0.1882,-0.1867,-0.1866,-0.1878,-0.1878,-0.1878,0,0,-0.2215,-0.2191,-0.2179,-0.214,-0.212,-0.2098,-0.209,-0.2067,-0.205,-0.2029,-0.2001,-0.1983,-0.1954,-0.1926,-0.1913,-0.1911,-0.1877,-0.1883,-0.1884,-0.1881,-0.1866,-0.1865,-0.1864,-0.1877,-0.1877,-0.1877,0,0,-0.2208,-0.2187,-0.2167,-0.2148,-0.2117,-0.2099,-0.2095,-0.2061,-0.2049,-0.202,-0.2005,-0.1984,-0.1943,-0.1922,-0.1906,-0.1892,-0.188,-0.1884,-0.1885,-0.1871,-0.187,-0.1869,-0.1863,-0.1862,-0.1883,-0.1883,-0.1883,0,-0.2214,-0.218,-0.2159,-0.2137,-0.212,-0.2101,-0.2081,-0.2063,-0.2026,-0.2015,-0.2014,-0.1961,-0.194,-0.1908,-0.1904,-0.1892,-0.1886,-0.1888,-0.1872,-0.187,-0.1869,-0.1864,-0.1862,-0.1883,-0.1883,-0.1883,-0.1883,0,-0.2189,-0.2166,-0.2154,-0.212,-0.2102,-0.2081,-0.2056,-0.204,-0.2028,-0.201,-0.1982,-0.1955,-0.1926,-0.1917,-0.1904,-0.1883,-0.1882,-0.1877,-0.1874,-0.1869,-0.1863,-0.1861,-0.1884,-0.1884,-0.1884,-0.1884,0,0,-0.2191,-0.2146,-0.2142,-0.2126,-0.2091,-0.2073,-0.2051,-0.2023,-0.201,-0.1985,-0.1966,-0.1932,-0.1926,-0.1908,-0.1893,-0.1881,-0.1871,-0.1876,-0.1875,-0.1876,-0.1845,-0.185,-0.1848,-0.1863,-0.1863,-0.1863,-0.1848,0,-0.2179,-0.2139,-0.212,-0.2089,-0.2067,-0.2049,-0.203,-0.2007,-0.199,-0.1969,-0.195,-0.1926,-0.192,-0.1909,-0.1896,-0.1875,-0.1864,-0.1876,-0.1845,-0.1844,-0.1853,-0.1845,-0.1849,-0.1837,-0.1846,-0.1845,-0.1845,0,-0.2159,-0.2135,-0.2102,-0.207,-0.2061,-0.2044,-0.2016,-0.1997,-0.197,-0.1958,-0.1939,-0.1924,-0.19,-0.19,-0.1867,-0.1875,-0.1861,-0.1849,-0.1848,-0.1844,-0.1844,-0.184,-0.1832,-0.183,-0.1841,-0.1842,-0.1842,0,-0.2164,-0.2123,-0.2098,-0.2085,-0.2048,-0.2037,-0.202,-0.1994,-0.1978,-0.1954,-0.1943,-0.1916,-0.1902,-0.1881,-0.186,-0.1861,-0.1828,-0.1826,-0.1818,-0.1818,-0.1811,-0.1812,-0.18,-0.1803,-0.1803,-0.1803,-0.1803,0,-0.2151,-0.2132,-0.21,-0.2085,-0.2062,-0.204,-0.2018,-0.2,-0.1977,-0.1958,-0.1941,-0.1923,-0.1896,-0.1875,-0.1858,-0.1833,-0.1826,-0.1816,-0.1812,-0.1817,-0.1819,-0.1808,-0.1808,-0.1803,-0.1803,-0.1803,-0.1803,0,-0.2153,-0.2131,-0.2102,-0.2069,-0.2061,-0.2046,-0.2017,-0.2002,-0.1984,-0.196,-0.1953,-0.1925,-0.1899,-0.1876,-0.1841,-0.183,-0.1804,-0.1799,-0.1814,-0.1811,-0.1804,-0.1805,-0.1785,-0.1781,-0.1787,-0.1787,-0.1787,0,-0.2146,-0.2131,-0.2097,-0.2083,-0.2067,-0.2045,-0.2029,-0.2006,-0.199,-0.1959,-0.1947,-0.192,-0.1897,-0.1857,-0.1833,-0.1807,-0.18,-0.1795,-0.1796,-0.1803,-0.18,-0.1801,-0.1799,-0.1795,-0.1795,-0.1795,-0.1795,0,-0.2137,-0.2127,-0.2105,-0.2078,-0.206,-0.2038,-0.2016,-0.2005,-0.1978,-0.1961,-0.1935,-0.1917,-0.1883,-0.1856,-0.1827,-0.181,-0.1798,-0.1795,-0.1792,-0.1797,-0.1806,-0.1801,-0.1814,-0.1796,-0.1796,-0.1796,-0.1796,-0.1796,-0.2134,-0.212,-0.2093,-0.2069,-0.205,-0.203,-0.2013,-0.1994,-0.1972,-0.1942,-0.193,-0.1903,-0.1877,-0.1837,-0.182,-0.1799,-0.1797,-0.1792,-0.179,-0.179,-0.1791,-0.181,-0.1794,-0.1794,-0.1794,-0.1794,-0.1794,0,-0.2124,-0.2106,-0.2084,-0.2054,-0.2035,-0.2026,-0.2001,-0.1985,-0.1962,-0.1939,-0.1917,-0.1887,-0.1861,-0.1836,-0.1809,-0.1797,-0.1791,-0.179,-0.1791,-0.1787,-0.1794,-0.18,-0.1796,-0.1796,-0.1796,-0.1796,-0.1796,-0.1796,-0.2117,-0.2092,-0.2079,-0.2044,-0.2026,-0.2,-0.1987,-0.1968,-0.1949,-0.1917,-0.1895,-0.1879,-0.1855,-0.1826,-0.1802,-0.1796,-0.1786,-0.1788,-0.1779,-0.1786,-0.1786,-0.1787,-0.1792,-0.1786,-0.1786,-0.1774,-0.1773,-0.1773]},{"header":{"parameterUnit":"m.s-1","parameterCategory":1,"la1":30.2991,"la2":30.254,"lo1":-89.0895,"lo2":-89.0444,"dy":0.0017,"dx":0.0017,"nx":28,"ny":28,"refTime":"2025-12-28T03:00:00:Z","depth":0,"parameterNumber":3,"parameterNumberName":"V-component_of_WINDS"},"data":[0,0,0,0,0,0,0,0,0,0,0,0,0,0,0,0,0,0,0,0,0,0,0,0,0,0,0,0,0,0,0,0,0,0,0,0,0,0,0,0,0,0,0,0,0,0,0,0,0,0,0,0,0,0,0,0,0,0,1.9971,1.9972,0,2.0053,2.0054,2.0055,2.008,2.0079,2.0079,2.0078,2.0162,2.0164,2.0167,0,0,0,0,0,0,0,0,0,0,0,0,0,1.9833,1.9835,1.9971,1.9972,1.9973,2.0053,2.0054,2.0056,2.008,2.0079,2.0079,2.0078,2.0161,2.0164,2.0167,0,0,0,0,0,0,0,0,0,0,0,0,0,1.9902,1.9836,1.9971,1.9995,1.9998,2.0053,2.0055,2.0056,2.008,2.0079,2.0079,2.0078,2.016,2.0164,2.0167,2.0204,0,0,2.0179,2.0181,0,0,0,0,0,0,0,0,1.9898,1.9907,1.999,1.9993,1.9996,2.0056,2.0036,2.0106,2.008,2.0049,2.0078,2.0078,2.0127,2.0133,2.015,2.0208,2.0212,2.018,2.0182,2.0184,2.0185,0,0,0,0,0,0,0,1.9893,1.9904,2.0003,1.9991,1.9995,2.0001,2.001,2.005,2.009,2.0051,2.0053,2.0063,2.0128,2.0146,2.0152,2.0213,2.018,2.0183,2.0186,2.0187,2.0308,2.0308,0,0,0,0,0,0,1.9884,1.9899,2.0001,2.0006,1.9945,2.0004,2.0014,2.0037,2.009,2.0097,2.0063,2.0064,2.014,2.0148,2.0155,2.0204,2.0184,2.0187,2.019,2.0307,2.0308,2.0309,0,0,0,0,0,0,1.9881,1.9893,1.9997,1.9953,1.9967,2.0007,2.0033,2.0039,2.0057,2.0099,2.0106,2.0074,2.014,2.015,2.0193,2.0207,2.0189,2.0193,2.0306,2.0307,2.0308,2.03,0,0,0,0,0,0,1.9877,1.9892,1.9907,1.9953,1.9969,2.0034,2.0034,2.0041,2.0064,2.0065,2.0111,2.0118,2.014,2.0187,2.0197,2.0212,2.0196,2.0305,2.0306,2.0308,2.0299,2.0301,2.0302,0,0,0,0,0,1.9872,1.99,1.9907,1.9919,1.9988,2.0034,2.0043,2.0068,2.0065,2.008,2.0107,2.0117,2.0203,2.0191,2.0202,2.0219,2.0304,2.0306,2.0308,2.0299,2.0301,2.0302,0,0,0,0,0,0,1.9853,1.9907,1.9915,1.9959,1.9992,2.0038,2.0058,2.0069,2.0104,2.0103,2.0132,2.0143,2.0184,2.0205,2.019,2.0259,2.0254,2.0258,2.0243,2.0245,2.0247,2.0241,2.0199,0,0,0,0,0,1.9854,1.9887,1.9932,1.9967,1.9983,2.0018,2.0038,2.0055,2.009,2.0104,2.0134,2.0167,2.0203,2.0225,2.0259,2.0302,2.0313,2.0319,2.0321,2.0322,2.0326,2.0352,2.0355,2.0315,2.0315,2.0315,0,0,1.9856,1.989,1.9909,1.9964,1.9991,2.0025,2.0029,2.0064,2.009,2.0109,2.0152,2.0175,2.0214,2.0258,2.0278,2.0277,2.0339,2.0324,2.0325,2.0328,2.0354,2.0358,2.0361,2.0316,2.0316,2.0316,0,0,1.9878,1.9906,1.9939,1.9967,2.0009,2.0032,2.004,2.0085,2.0101,2.0145,2.016,2.0191,2.025,2.0278,2.03,2.0333,2.0344,2.0343,2.0352,2.0377,2.038,2.0383,2.0396,2.0401,2.0347,2.0347,2.0347,0,1.9876,1.9928,1.9954,1.9989,2.0014,2.0033,2.0067,2.0092,2.0143,2.0159,2.0157,2.0233,2.0261,2.0312,2.032,2.0337,2.0347,2.0339,2.0377,2.0381,2.0384,2.0397,2.0402,2.0346,2.0346,2.0347,2.0347,0,1.9923,1.9959,1.998,2.003,2.0057,2.009,2.0122,2.0146,2.016,2.0183,2.0228,2.0262,2.0304,2.0317,2.0331,2.0371,2.0369,2.0372,2.0368,2.0387,2.04,2.0405,2.0346,2.0346,2.0346,2.0346,0,0,1.9936,2.0001,2.0008,2.0032,2.008,2.0108,2.0143,2.0185,2.0205,2.0239,2.027,2.0321,2.0324,2.0349,2.0366,2.0387,2.0414,2.0388,2.0389,2.0393,2.0461,2.046,2.0466,2.0421,2.0422,2.0422,2.0459,0,1.9965,2.003,2.0055,2.0107,2.0141,2.0161,2.0192,2.0225,2.0247,2.0279,2.0304,2.034,2.0341,2.0356,2.0379,2.0406,2.0428,2.0403,2.045,2.0452,2.0441,2.0472,2.0471,2.0504,2.0464,2.0465,2.0465,0,2.0008,2.0044,2.01,2.0146,2.0161,2.0188,2.023,2.026,2.0298,2.0313,2.0341,2.0357,2.0395,2.0388,2.0441,2.0424,2.0444,2.046,2.0462,2.0469,2.0461,2.0481,2.0514,2.052,2.0473,2.0473,2.0472,0,2.0013,2.0076,2.0118,2.0137,2.0191,2.021,2.0233,2.027,2.0294,2.033,2.0347,2.0386,2.0408,2.0438,2.0464,2.0456,2.0516,2.051,2.053,2.0529,2.0543,2.0542,2.0581,2.0553,2.0553,2.0553,2.0553,0,2.0044,2.0078,2.0122,2.0148,2.0187,2.0215,2.0253,2.0277,2.031,2.0341,2.036,2.0389,2.0421,2.0454,2.0475,2.0517,2.0526,2.054,2.0545,2.0539,2.0538,2.0554,2.0553,2.0554,2.0554,2.0554,2.0553,0,2.0058,2.0088,2.0135,2.0183,2.0195,2.0222,2.0262,2.0289,2.0312,2.0352,2.0363,2.04,2.044,2.0469,2.052,2.0534,2.058,2.0584,2.0567,2.057,2.0589,2.0587,2.0642,2.0651,2.0615,2.0615,2.0615,0,2.0076,2.0103,2.0153,2.0176,2.02,2.0236,2.0261,2.029,2.0315,2.0361,2.0382,2.0424,2.0459,2.0522,2.0553,2.0593,2.06,2.0616,2.0606,2.0599,2.0602,2.0601,2.0604,2.0618,2.0618,2.0618,2.0618,0,2.0106,2.012,2.0156,2.0198,2.0228,2.0262,2.0296,2.0313,2.0348,2.0376,2.0418,2.0445,2.0498,2.054,2.0583,2.0606,2.0619,2.0621,2.0628,2.0623,2.0613,2.062,2.0573,2.062,2.062,2.062,2.062,2.062,2.0124,2.015,2.019,2.023,2.0258,2.029,2.0318,2.0345,2.0381,2.0427,2.0442,2.0485,2.0524,2.0583,2.0607,2.0642,2.0641,2.0651,2.0653,2.0656,2.0656,2.0606,2.0649,2.0649,2.0649,2.0649,2.0649,0,2.0157,2.0184,2.022,2.0268,2.03,2.0309,2.0347,2.0373,2.0411,2.0446,2.0481,2.0529,2.057,2.0605,2.0647,2.0668,2.0675,2.0678,2.0677,2.0683,2.0654,2.0644,2.0672,2.0672,2.0672,2.0672,2.0672,2.0672,2.0178,2.0222,2.0241,2.03,2.0326,2.037,2.0392,2.0421,2.0449,2.0503,2.0537,2.056,2.0595,2.064,2.0678,2.0687,2.0702,2.0705,2.0715,2.0687,2.0685,2.0682,2.0674,2.0707,2.0707,2.0742,2.0743,2.0743]}]]